Location: Roland
(31.1349°N, 85.4372°W)
Time: 12:29:54
(UTC+00:00)

Explorer 11/Cluster Stage 4 - Pass Details

Date: 25 April 2021
Orbit: 467 x 1257 km, 28.8° (Epoch: 15 May)

Event Time Altitude Azimuth Distance (km) Brightness Sun altitude
Exits shadow 09:04:27 17° 135° (SE) 1,267 7.8 -23.8°
Drops below altitude 10° 09:05:58 10° 112° (ESE) 1,620 8.6 -23.5°
Sets 09:08:30 0° 94° (E) 2,482 10.0 -23.0°
